[[{"header":{"parameterUnit":"m.s-1","parameterCategory":1,"la1":30.2991,"la2":30.254,"lo1":-89.0895,"lo2":-89.0444,"dy":0.0017,"dx":0.0017,"nx":28,"ny":28,"refTime":"2024-02-29T03:00:00:Z","depth":0,"parameterNumber":2,"parameterNumberName":"U-component_of_WINDS"},"data":[0,0,0,0,0,0,0,0,0,0,0,0,0,0,0,0,0,0,0,0,0,0,0,0,0,0,0,0,0,0,0,0,0,0,0,0,0,0,0,0,0,0,0,0,0,0,0,0,0,0,0,0,0,0,0,0,0,0,1.6328,1.6328,0,1.6333,1.6334,1.6334,1.6284,1.6282,1.6281,1.628,1.6286,1.6287,1.6289,0,0,0,0,0,0,0,0,0,0,0,0,0,1.6276,1.6277,1.6328,1.6328,1.6328,1.6333,1.6334,1.6334,1.6284,1.6282,1.628,1.6279,1.6285,1.6287,1.6289,0,0,0,0,0,0,0,0,0,0,0,0,0,1.6292,1.6277,1.6328,1.6304,1.6302,1.6333,1.6334,1.6334,1.6284,1.6282,1.628,1.6278,1.6285,1.6287,1.6289,1.6344,0,0,1.6296,1.6297,0,0,0,0,0,0,0,0,1.6291,1.6294,1.6307,1.6305,1.6303,1.6306,1.6318,1.6337,1.6285,1.6291,1.6279,1.6277,1.6294,1.6296,1.6301,1.6345,1.6345,1.6296,1.6297,1.6298,1.6299,0,0,0,0,0,0,0,1.629,1.6293,1.633,1.6307,1.6305,1.6293,1.6293,1.6321,1.6304,1.629,1.6286,1.6288,1.6293,1.6299,1.6301,1.6345,1.6296,1.6298,1.6299,1.63,1.6437,1.644,0,0,0,0,0,0,1.6292,1.6293,1.633,1.633,1.6292,1.6296,1.6296,1.6307,1.6304,1.6301,1.629,1.6286,1.6296,1.6298,1.6301,1.6367,1.6298,1.63,1.6302,1.6435,1.6438,1.6441,0,0,0,0,0,0,1.6291,1.6296,1.6329,1.631,1.6314,1.6299,1.6312,1.6308,1.6315,1.6303,1.63,1.6299,1.6295,1.6298,1.6335,1.6367,1.6301,1.6303,1.6432,1.6436,1.6439,1.6499,0,0,0,0,0,0,1.629,1.6295,1.6316,1.6311,1.6315,1.6362,1.6314,1.631,1.6318,1.6313,1.6311,1.6309,1.6293,1.6332,1.6337,1.6369,1.6305,1.6429,1.6434,1.6438,1.6494,1.6504,1.6513,0,0,0,0,0,1.6288,1.6332,1.6317,1.6322,1.634,1.6364,1.6367,1.6347,1.6321,1.6342,1.6335,1.6309,1.6363,1.6336,1.6341,1.6374,1.6427,1.6433,1.6438,1.649,1.6502,1.6513,0,0,0,0,0,0,1.6339,1.633,1.6314,1.6357,1.6362,1.6356,1.6381,1.6361,1.6373,1.6367,1.6343,1.6343,1.6385,1.6383,1.6353,1.6429,1.639,1.6397,1.6428,1.644,1.6449,1.6448,1.6307,0,0,0,0,0,1.6356,1.6376,1.6367,1.6407,1.641,1.6396,1.6405,1.6391,1.6395,1.6396,1.6392,1.6397,1.6415,1.6427,1.6443,1.6494,1.6494,1.652,1.6529,1.6537,1.6543,1.6572,1.6583,1.6458,1.6458,1.6458,0,0,1.639,1.6388,1.6402,1.6417,1.6419,1.6442,1.6397,1.6422,1.6439,1.64,1.6435,1.6432,1.6437,1.6481,1.6501,1.6481,1.6578,1.6543,1.655,1.6551,1.6578,1.659,1.6601,1.6461,1.6461,1.646,0,0,1.6464,1.6464,1.6497,1.6501,1.6505,1.6495,1.6504,1.6501,1.6498,1.6533,1.6505,1.6525,1.6556,1.6561,1.6567,1.6647,1.6624,1.6653,1.6701,1.673,1.674,1.6748,1.6778,1.6789,1.6659,1.6659,1.6659,0,1.6506,1.6538,1.6517,1.6545,1.6554,1.652,1.6555,1.6559,1.6568,1.6576,1.6554,1.6594,1.6594,1.6641,1.6661,1.6666,1.6676,1.6652,1.674,1.6748,1.6756,1.6784,1.6795,1.6662,1.6662,1.6662,1.6661,0,1.659,1.6613,1.664,1.6651,1.6662,1.6693,1.6679,1.6693,1.6679,1.6672,1.6709,1.6709,1.6725,1.6735,1.672,1.6781,1.6769,1.6744,1.6704,1.6772,1.6798,1.6808,1.6667,1.6666,1.6665,1.6664,0,0,1.6694,1.6695,1.6705,1.6711,1.6714,1.6732,1.6763,1.6779,1.6793,1.6801,1.6827,1.6856,1.6834,1.6842,1.6827,1.6852,1.6918,1.6825,1.6824,1.6843,1.6986,1.7005,1.7018,1.6903,1.6905,1.6906,1.6986,0,1.6767,1.6819,1.6803,1.6856,1.6879,1.6849,1.6876,1.6882,1.6877,1.6896,1.6891,1.6912,1.6881,1.6886,1.6909,1.6905,1.6946,1.6899,1.6928,1.6929,1.6928,1.7031,1.705,1.7125,1.6996,1.6998,1.6999,0,1.6858,1.6871,1.6927,1.6929,1.6938,1.6962,1.6978,1.6996,1.7003,1.6998,1.7008,1.699,1.7021,1.6983,1.7027,1.6995,1.7007,1.7007,1.7009,1.7011,1.6968,1.7036,1.7149,1.716,1.7014,1.7013,1.7012,0,1.6931,1.6962,1.7,1.7005,1.7008,1.7027,1.7029,1.7033,1.7045,1.7059,1.7067,1.7084,1.7094,1.7108,1.7095,1.7068,1.7142,1.7102,1.714,1.7141,1.7157,1.7156,1.7273,1.7164,1.7163,1.7163,1.7163,0,1.7014,1.7049,1.7033,1.7056,1.7096,1.7078,1.7118,1.7117,1.7122,1.7145,1.7121,1.7143,1.7125,1.7147,1.7137,1.7177,1.7181,1.7178,1.7176,1.7181,1.7181,1.7188,1.7182,1.7166,1.7166,1.7165,1.7164,0,1.71,1.709,1.713,1.7131,1.7132,1.7161,1.7162,1.7184,1.7179,1.7209,1.7215,1.7207,1.7232,1.7221,1.7246,1.724,1.7291,1.728,1.7288,1.7286,1.7325,1.7322,1.745,1.7467,1.7347,1.7348,1.7349,0,1.7154,1.7181,1.7185,1.7199,1.7203,1.7226,1.7239,1.7223,1.7238,1.7249,1.7271,1.7293,1.731,1.7351,1.7348,1.7368,1.7358,1.7402,1.7361,1.7366,1.736,1.7359,1.7362,1.741,1.7412,1.7413,1.7414,0,1.7251,1.7246,1.7264,1.7283,1.7299,1.7312,1.7323,1.7337,1.7322,1.7339,1.7364,1.7378,1.7405,1.7428,1.7447,1.745,1.743,1.7427,1.7437,1.7443,1.7447,1.7446,1.7312,1.7424,1.7423,1.7422,1.7422,1.7421,1.7323,1.7347,1.7354,1.7377,1.7384,1.7396,1.7418,1.7416,1.7437,1.7457,1.7447,1.7477,1.7486,1.7508,1.7515,1.7538,1.7521,1.7535,1.7539,1.7543,1.7549,1.7443,1.7542,1.7541,1.7541,1.7541,1.7541,0,1.742,1.7424,1.7445,1.7462,1.7481,1.7461,1.7474,1.7491,1.7517,1.7527,1.7545,1.7575,1.7598,1.7598,1.762,1.7639,1.7631,1.7646,1.7644,1.7645,1.7562,1.7552,1.7652,1.7652,1.7652,1.7652,1.7652,1.7652,1.7472,1.7511,1.7507,1.7551,1.7554,1.7584,1.7593,1.7604,1.7612,1.7647,1.7667,1.7667,1.7673,1.7695,1.7717,1.7716,1.7725,1.7744,1.774,1.7662,1.7651,1.764,1.7631,1.7746,1.7746,1.7821,1.7822,1.7822]},{"header":{"parameterUnit":"m.s-1","parameterCategory":1,"la1":30.2991,"la2":30.254,"lo1":-89.0895,"lo2":-89.0444,"dy":0.0017,"dx":0.0017,"nx":28,"ny":28,"refTime":"2024-02-29T03:00:00:Z","depth":0,"parameterNumber":3,"parameterNumberName":"V-component_of_WINDS"},"data":[0,0,0,0,0,0,0,0,0,0,0,0,0,0,0,0,0,0,0,0,0,0,0,0,0,0,0,0,0,0,0,0,0,0,0,0,0,0,0,0,0,0,0,0,0,0,0,0,0,0,0,0,0,0,0,0,0,0,-0.9793,-0.9791,0,-0.9643,-0.9641,-0.9639,-0.9596,-0.9597,-0.9598,-0.9599,-0.9428,-0.9422,-0.9417,0,0,0,0,0,0,0,0,0,0,0,0,0,-1.0026,-1.0022,-0.9793,-0.9791,-0.9789,-0.9643,-0.9641,-0.9639,-0.9596,-0.9597,-0.9598,-0.9599,-0.9429,-0.9423,-0.9417,0,0,0,0,0,0,0,0,0,0,0,0,0,-0.9905,-1.002,-0.9793,-0.9751,-0.9745,-0.9643,-0.9641,-0.9638,-0.9596,-0.9597,-0.9599,-0.96,-0.9432,-0.9424,-0.9416,-0.934,0,0,-0.9391,-0.9388,0,0,0,0,0,0,0,0,-0.9911,-0.9896,-0.9759,-0.9753,-0.9747,-0.964,-0.966,-0.9538,-0.9596,-0.9652,-0.9599,-0.96,-0.9496,-0.9483,-0.9451,-0.9332,-0.9325,-0.939,-0.9386,-0.9382,-0.938,0,0,0,0,0,0,0,-0.992,-0.9902,-0.9733,-0.9757,-0.975,-0.9733,-0.9718,-0.9637,-0.9568,-0.9647,-0.9644,-0.9628,-0.9493,-0.9459,-0.9447,-0.9322,-0.9391,-0.9384,-0.9379,-0.9375,-0.9131,-0.9129,0,0,0,0,0,0,-0.9938,-0.9909,-0.9738,-0.9728,-0.9835,-0.9728,-0.9711,-0.9673,-0.9569,-0.9555,-0.9627,-0.9626,-0.9472,-0.9456,-0.9441,-0.9345,-0.9382,-0.9375,-0.937,-0.9133,-0.9131,-0.9129,0,0,0,0,0,0,-0.9943,-0.9923,-0.9744,-0.9818,-0.9794,-0.9723,-0.9681,-0.9669,-0.9635,-0.9554,-0.9539,-0.9606,-0.9473,-0.9452,-0.9366,-0.9338,-0.9371,-0.9364,-0.9135,-0.9132,-0.913,-0.9152,0,0,0,0,0,0,-0.995,-0.9925,-0.99,-0.9818,-0.979,-0.9677,-0.9679,-0.9665,-0.9624,-0.9622,-0.953,-0.9516,-0.9472,-0.9379,-0.9358,-0.9328,-0.9357,-0.9137,-0.9133,-0.913,-0.9154,-0.9151,-0.9149,0,0,0,0,0,-0.9959,-0.9908,-0.9899,-0.9878,-0.9758,-0.9676,-0.9659,-0.9615,-0.9622,-0.9593,-0.954,-0.9519,-0.9345,-0.937,-0.9347,-0.9313,-0.9138,-0.9134,-0.9131,-0.9155,-0.9152,-0.9149,0,0,0,0,0,0,-0.9982,-0.9897,-0.9885,-0.9808,-0.9751,-0.9669,-0.9631,-0.9612,-0.9547,-0.9547,-0.9489,-0.9468,-0.9386,-0.934,-0.9371,-0.9234,-0.924,-0.9232,-0.9267,-0.9263,-0.926,-0.9272,-0.9351,0,0,0,0,0,-0.998,-0.9926,-0.9852,-0.979,-0.9763,-0.9702,-0.9665,-0.9636,-0.9571,-0.9544,-0.9485,-0.9418,-0.9348,-0.9303,-0.9234,-0.9147,-0.9125,-0.9112,-0.911,-0.9108,-0.9101,-0.905,-0.9043,-0.9116,-0.9117,-0.9117,0,0,-0.9972,-0.9918,-0.9887,-0.9794,-0.9746,-0.9686,-0.9681,-0.9618,-0.9572,-0.9532,-0.945,-0.9404,-0.9325,-0.9239,-0.9197,-0.9198,-0.9076,-0.9103,-0.9103,-0.9096,-0.9045,-0.9038,-0.9032,-0.9114,-0.9114,-0.9115,0,0,-0.9927,-0.9883,-0.9827,-0.978,-0.9709,-0.9669,-0.9656,-0.9577,-0.9547,-0.9465,-0.9434,-0.9374,-0.9256,-0.9201,-0.9157,-0.9092,-0.9069,-0.9071,-0.9056,-0.9007,-0.9001,-0.8996,-0.8971,-0.8963,-0.9064,-0.9064,-0.9064,0,-0.9924,-0.9839,-0.9799,-0.9739,-0.9697,-0.9666,-0.9606,-0.956,-0.9467,-0.9437,-0.9441,-0.9292,-0.9236,-0.9136,-0.9121,-0.9087,-0.9066,-0.908,-0.9007,-0.9001,-0.8995,-0.897,-0.8961,-0.9064,-0.9064,-0.9064,-0.9064,0,-0.9839,-0.9779,-0.9742,-0.9661,-0.9615,-0.9555,-0.9501,-0.9458,-0.9433,-0.9392,-0.9305,-0.9238,-0.9155,-0.9129,-0.9101,-0.9024,-0.9027,-0.9019,-0.9025,-0.8989,-0.8965,-0.8956,-0.9065,-0.9065,-0.9065,-0.9065,0,0,-0.9803,-0.9703,-0.969,-0.9653,-0.9572,-0.9523,-0.9459,-0.9384,-0.9348,-0.9284,-0.9227,-0.9128,-0.9121,-0.9072,-0.9037,-0.8995,-0.8946,-0.8992,-0.8989,-0.8984,-0.8854,-0.886,-0.885,-0.8931,-0.8929,-0.8927,-0.886,0,-0.9748,-0.9641,-0.9603,-0.9512,-0.9455,-0.9424,-0.9368,-0.931,-0.9269,-0.921,-0.9161,-0.9093,-0.909,-0.906,-0.9016,-0.8961,-0.8918,-0.8966,-0.8872,-0.8869,-0.8893,-0.8838,-0.8843,-0.8783,-0.8851,-0.8849,-0.8848,0,-0.9669,-0.9612,-0.9517,-0.9445,-0.9419,-0.9371,-0.9298,-0.9244,-0.9175,-0.9148,-0.9094,-0.9063,-0.899,-0.9002,-0.8898,-0.8931,-0.889,-0.8857,-0.8853,-0.8842,-0.8856,-0.8823,-0.8763,-0.8754,-0.8833,-0.8834,-0.8835,0,-0.9652,-0.955,-0.9481,-0.9449,-0.9363,-0.9329,-0.929,-0.9224,-0.9181,-0.9115,-0.9086,-0.901,-0.8968,-0.8908,-0.8856,-0.8869,-0.8756,-0.8763,-0.8727,-0.8729,-0.8704,-0.8706,-0.8636,-0.868,-0.868,-0.868,-0.868,0,-0.9593,-0.9536,-0.9472,-0.9429,-0.9363,-0.9318,-0.9251,-0.9209,-0.9151,-0.9095,-0.9061,-0.9008,-0.8943,-0.888,-0.8837,-0.8757,-0.8738,-0.871,-0.8699,-0.8713,-0.8716,-0.8684,-0.8686,-0.8678,-0.8678,-0.8679,-0.8679,0,-0.9563,-0.9518,-0.944,-0.9367,-0.9346,-0.9301,-0.9234,-0.9188,-0.9147,-0.9076,-0.9057,-0.8989,-0.8913,-0.8856,-0.8755,-0.8727,-0.8641,-0.863,-0.8666,-0.8661,-0.8628,-0.8632,-0.8533,-0.8517,-0.8574,-0.8573,-0.8573,0,-0.9528,-0.9485,-0.9408,-0.9371,-0.9335,-0.9275,-0.9233,-0.9185,-0.9141,-0.906,-0.9023,-0.8946,-0.8883,-0.8762,-0.87,-0.8622,-0.8608,-0.8579,-0.8595,-0.861,-0.8606,-0.8609,-0.8603,-0.8576,-0.8576,-0.8576,-0.8575,0,-0.9471,-0.9452,-0.9395,-0.9331,-0.9283,-0.9227,-0.9171,-0.9141,-0.9083,-0.9034,-0.896,-0.8911,-0.8812,-0.8734,-0.8651,-0.8604,-0.8578,-0.8571,-0.8559,-0.8571,-0.8594,-0.858,-0.8659,-0.8573,-0.8573,-0.8573,-0.8574,-0.8574,-0.9436,-0.9396,-0.9336,-0.9274,-0.9228,-0.9177,-0.9131,-0.9085,-0.9025,-0.8945,-0.8918,-0.8841,-0.877,-0.8657,-0.861,-0.8544,-0.8543,-0.8525,-0.852,-0.8516,-0.8517,-0.8606,-0.8528,-0.8528,-0.8528,-0.8528,-0.8528,0,-0.9376,-0.9337,-0.9281,-0.9206,-0.9156,-0.9143,-0.908,-0.9037,-0.8972,-0.8912,-0.8852,-0.8765,-0.869,-0.8623,-0.8544,-0.8504,-0.849,-0.8484,-0.8486,-0.8475,-0.8523,-0.8542,-0.8497,-0.8497,-0.8497,-0.8497,-0.8497,-0.8497,-0.9339,-0.9271,-0.9244,-0.915,-0.9109,-0.9039,-0.9004,-0.8954,-0.8907,-0.8814,-0.8754,-0.8713,-0.8649,-0.8565,-0.8494,-0.8475,-0.8447,-0.8444,-0.8422,-0.8468,-0.8472,-0.8475,-0.8493,-0.8439,-0.8439,-0.838,-0.8379,-0.8379]}]]